Orbital elements:
2017 DS165                                                                      
Epoch 2024 Mar. 31.0 TT = JDT 2460400.5                 Alexandersen            
M 322.88577              (2000.0)            P               Q                  
n   0.00379054     Peri.  270.47377     -0.88557079     +0.40481247             
a  40.7381976      Node   293.42049     -0.26146628     -0.83975976             
e   0.0560589      Incl.   14.37393     -0.38392676     -0.36184307             
P 260              H    9.45          G   0.15           U   7                  
Residuals in seconds of arc
161225 T09  0.1-  0.1+    170123 T09  0.0   0.1-    170225 T09  0.0   0.0
161225 T09  0.5+  0.4+    170130 T09  0.1-  0.2+    170225 T09  0.2-  0.3-
161225 T09  0.5+  0.2+    170130 T09  0.1-  0.0     170304 T09  0.4-  0.0
161225 T09  0.4+  0.3-    170130 T09  0.1-  0.4+    170304 T09  0.2+  0.3-
161225 T09  0.1-  0.1+    170130 T09  0.0   0.0     170304 T09  0.0   0.2-
170102 T09  0.3-  0.1+    170130 T09  0.1+  0.1+    170304 T09  0.1+  0.1+
170102 T09  0.1-  0.0     170130 T09  0.1-  0.1-    170304 T09  0.2+  0.0
170102 T09  0.3-  0.3-    170130 T09  0.0   0.4+    170304 T09  0.2+  0.2+
170121 T09  0.0   0.1+    170130 T09  0.0   0.1-    170304 T09  0.1+  0.4-
170121 T09  0.3-  0.1-    170130 T09  0.0   0.2-    170304 T09  0.2+  0.1-
170121 T09  0.2-  0.1+    170130 T09  0.4+  0.3-    170304 T09  0.0   0.2-
170121 T09  0.1-  0.0     170202 T09  0.5+  0.1+    170304 T09  0.1-  0.0
170121 T09  0.0   0.1+    170202 T09  0.2+  0.1+    170304 T09  0.0   0.0
170121 T09  0.0   0.0     170202 T09  0.1-  0.1-    170304 T09  0.2-  0.2+
170121 T09  0.2+  0.1-    170221 T09  0.1-  0.1-    170304 T09  0.1-  0.1-
170121 T09  0.2-  0.0     170221 T09  0.1+  0.0     170304 T09  0.1+  0.0
170121 T09  0.2-  0.3-    170221 T09  0.0   0.1+    170304 T09  0.1-  0.0
170123 T09  0.6-  0.3+    170221 T09  0.3-  0.3+    170306 T09  0.1+  0.1-
170123 T09  0.3-  0.2+    170221 T09  0.3+  0.1+    170306 T09  0.0   0.0
170123 T09  0.1+  0.2-    170223 T09  0.0   0.3-    170306 T09  0.3-  0.0
170123 T09  0.0   0.2-    170223 T09  0.0   0.1+    170306 T09  0.0   0.0
170123 T09  0.2+  0.5+    170223 T09  0.1+  0.2-    170306 T09  0.4-  0.0
170123 T09  0.1+  0.2+    170223 T09  0.0   0.1+    170306 T09  0.2+  0.1-
170123 T09  0.4+  0.1-    170225 T09  0.1+  0.0     170306 T09  0.2+  0.0
170123 T09  0.0   0.0     170225 T09  0.6-  0.3+    180117 T09  0.2+  0.1+
170123 T09  0.5-  0.2-    170225 T09  0.0   0.0     180117 T09  0.0   0.0
170123 T09  0.1+  0.2+    170225 T09  0.1-  0.2-    180117 T09  0.3-  0.2+
170123 T09  0.1-  0.1-    170225 T09  0.0   0.0     190509 T09  0.0   0.1-
170123 T09  0.0   0.0     170225 T09  0.2-  0.1-    190509 T09  0.0   0.0
170123 T09  0.1+  0.1+    170225 T09  0.0   0.1+

Ephemeris:
2017 DS165               a,e,i = 40.74, 0.06, 14                 q = 38.4545
Date    TT    R. A. (2000) Decl.     Delta      r    Elong.  Phase     V
2024 04 23    10 32 01.9 -02 39 32  38.3532 38.9647   126.9     1.2    25.5
...
2024 05 08    10 31 36.5 -02 33 37  38.5653 38.9632   112.5     1.4    25.5
...
2024 05 16    10 31 31.3 -02 31 07  38.6897 38.9624   104.9     1.4    25.5
...
2024 05 22    10 31 31.4 -02 29 36  38.7862 38.9618    99.3     1.5    25.5
2024 05 23    10 31 31.7 -02 29 22  38.8025 38.9617    98.3     1.5    25.5
2024 05 24    10 31 32.1 -02 29 09  38.8188 38.9616    97.4     1.5    25.5
...
2024 05 30    10 31 36.7 -02 28 04  38.9173 38.9610    91.7     1.5    25.6
...
2024 06 07    10 31 48.1 -02 27 08  39.0491 38.9602    84.2     1.5    25.6
...
2024 06 22    10 32 24.9 -02 27 08  39.2893 38.9587    70.3     1.4    25.6

M. P. C. Staff               (C) Copyright 2024 MPC           M.P.E.C. 2024-K57





More information about the Iaude mailing list